RAM087G GMMN-EGKK

Flight info

Callsign RAM087G
Flight time N/A
Altitude 34000
Route TOLSI1D/35R TOLSI UG5 KORIS L27 VJF N10 HIJ Z230 TLD N858 DGO N867 NENEM DCT PEXOD DCT YURZI UL14 TEPRA UN867 TERPO UP87 REVTU UP88 VASUX
Aircraft B738/M-SDE2E3FGHIRWXY/LB1

Departure

Time N/A
Airport Mohammed V International Airport (GMMN)

Arrival

Time 2026-04-27 00:04
Airport London Gatwick Airport (EGKK)
Time Latitude Longitude Altitude Speed Heading
2026-04-26 22:05 38.92710 -4.88474 34066 ft 448 kts 20°
2026-04-26 22:05 38.94589 -4.87503 34068 ft 449 kts 20°
2026-04-26 22:06 39.00519 -4.84434 34074 ft 451 kts 20°
2026-04-26 22:06 39.06347 -4.81406 34072 ft 450 kts 20°
2026-04-26 22:07 39.12148 -4.78384 34079 ft 449 kts 20°
2026-04-26 22:07 39.17902 -4.75384 34079 ft 448 kts 20°
2026-04-26 22:08 39.23680 -4.72372 34085 ft 448 kts 20°
2026-04-26 22:08 39.29467 -4.69358 34088 ft 448 kts 20°
2026-04-26 22:09 39.35262 -4.66333 34092 ft 449 kts 20°
2026-04-26 22:09 39.41056 -4.63303 34103 ft 452 kts 20°
2026-04-26 22:10 39.46923 -4.60228 34101 ft 455 kts 20°
2026-04-26 22:10 39.52740 -4.57173 34096 ft 451 kts 21°
2026-04-26 22:11 39.58539 -4.54122 34100 ft 449 kts 21°
2026-04-26 22:11 39.64327 -4.51072 34094 ft 447 kts 21°
2026-04-26 22:12 39.70091 -4.48028 34100 ft 446 kts 21°
2026-04-26 22:12 39.75848 -4.44983 34100 ft 447 kts 21°
2026-04-26 22:13 39.81570 -4.41946 34102 ft 448 kts 21°
2026-04-26 22:13 39.87369 -4.38832 34109 ft 449 kts 21°
2026-04-26 22:14 39.93130 -4.35731 34109 ft 450 kts 21°
2026-04-26 22:14 39.98929 -4.32571 34106 ft 452 kts 23°
2026-04-26 22:15 40.04636 -4.29119 34097 ft 453 kts 24°
2026-04-26 22:15 40.10310 -4.25592 34102 ft 454 kts 24°
2026-04-26 22:16 40.16036 -4.22062 34119 ft 455 kts 24°
2026-04-26 22:16 40.21768 -4.18550 34115 ft 455 kts 24°
2026-04-26 22:17 40.27516 -4.15032 34120 ft 455 kts 24°
2026-04-26 22:17 40.33246 -4.11519 34135 ft 454 kts 24°
2026-04-26 22:18 40.38970 -4.08002 34136 ft 454 kts 24°
2026-04-26 22:18 40.44659 -4.04498 34138 ft 453 kts 24°
2026-04-26 22:19 40.50360 -4.00981 34140 ft 453 kts 24°
2026-04-26 22:19 40.56061 -3.97457 34146 ft 452 kts 24°
2026-04-26 22:20 40.61751 -3.93934 34149 ft 452 kts 24°
2026-04-26 22:20 40.67459 -3.90392 34148 ft 453 kts 24°
2026-04-26 22:21 40.73171 -3.86841 34152 ft 453 kts 24°
2026-04-26 22:21 40.78873 -3.83289 34160 ft 453 kts 24°
2026-04-26 22:22 40.84530 -3.79760 34158 ft 453 kts 24°
2026-04-26 22:22 40.90232 -3.76196 34158 ft 453 kts 25°
2026-04-26 22:23 40.95939 -3.72620 34165 ft 453 kts 25°
2026-04-26 22:23 41.01636 -3.69043 34171 ft 453 kts 25°
2026-04-26 22:24 41.07337 -3.65458 34169 ft 454 kts 25°
2026-04-26 22:24 41.13049 -3.61860 34173 ft 454 kts 25°
2026-04-26 22:25 41.18783 -3.58428 34175 ft 454 kts 22°
2026-04-26 22:25 41.24652 -3.55276 34178 ft 455 kts 21°
2026-04-26 22:26 41.30524 -3.52122 34178 ft 455 kts 21°
2026-04-26 22:26 41.36393 -3.48915 34171 ft 456 kts 21°
2026-04-26 22:27 41.42262 -3.45686 34165 ft 456 kts 22°
2026-04-26 22:27 41.48124 -3.42456 34166 ft 456 kts 22°
2026-04-26 22:28 41.53994 -3.39221 34166 ft 456 kts 21°
2026-04-26 22:28 41.59865 -3.35984 34168 ft 456 kts 21°
2026-04-26 22:29 41.65733 -3.32741 34164 ft 456 kts 21°
2026-04-26 22:29 41.71563 -3.29511 34167 ft 456 kts 21°
2026-04-26 22:30 41.77440 -3.26249 34166 ft 457 kts 21°
2026-04-26 22:30 41.83311 -3.22984 34175 ft 457 kts 21°
2026-04-26 22:31 41.89183 -3.19711 34181 ft 457 kts 21°
2026-04-26 22:31 41.95051 -3.16434 34182 ft 457 kts 21°
2026-04-26 22:32 42.00925 -3.13148 34186 ft 457 kts 21°
2026-04-26 22:32 42.06794 -3.09857 34189 ft 457 kts 21°
2026-04-26 22:33 42.15613 -3.04900 34191 ft 458 kts 21°
2026-04-26 22:34 42.21453 -3.01609 34194 ft 458 kts 21°
2026-04-26 22:34 42.27331 -2.98290 34196 ft 458 kts 21°
2026-04-26 22:35 42.33218 -2.94959 34189 ft 458 kts 21°
2026-04-26 22:35 42.39104 -2.91622 34188 ft 458 kts 21°
2026-04-26 22:36 42.45106 -2.88761 34185 ft 456 kts
2026-04-26 22:36 42.51395 -2.88227 34206 ft 452 kts 356°
2026-04-26 22:37 42.57643 -2.88627 34196 ft 453 kts 355°
2026-04-26 22:37 42.63950 -2.89031 34202 ft 454 kts 355°
2026-04-26 22:38 42.70275 -2.89381 34205 ft 454 kts 355°
2026-04-26 22:38 42.76615 -2.89707 34213 ft 455 kts 356°
2026-04-26 22:39 42.82959 -2.90032 34212 ft 456 kts 356°
2026-04-26 22:39 42.89266 -2.90356 34212 ft 456 kts 356°
2026-04-26 22:40 42.95613 -2.90685 34215 ft 456 kts 356°
2026-04-26 22:40 43.01961 -2.91015 34212 ft 456 kts 356°
2026-04-26 22:41 43.08315 -2.91345 34212 ft 457 kts 356°
2026-04-26 22:41 43.14656 -2.91676 34208 ft 456 kts 356°
2026-04-26 22:42 43.21001 -2.92008 34210 ft 456 kts 356°
2026-04-26 22:42 43.27343 -2.92339 34215 ft 455 kts 356°
2026-04-26 22:43 43.33605 -2.93327 34220 ft 452 kts 346°
2026-04-26 22:43 43.39732 -2.95306 34215 ft 451 kts 345°
2026-04-26 22:44 43.45800 -2.97288 34209 ft 450 kts 346°
2026-04-26 22:44 43.51908 -2.99221 34206 ft 450 kts 346°
2026-04-26 22:45 43.58005 -3.01130 34203 ft 449 kts 346°
2026-04-26 22:45 43.64102 -3.03045 34202 ft 448 kts 346°
2026-04-26 22:46 43.70186 -3.04945 34205 ft 448 kts 347°
2026-04-26 22:46 43.76290 -3.06702 34199 ft 447 kts 348°
2026-04-26 22:47 43.81357 -3.08136 34197 ft 447 kts 348°
2026-04-26 22:47 43.87443 -3.09881 34203 ft 446 kts 347°
2026-04-26 22:48 43.93523 -3.11640 34197 ft 446 kts 347°
2026-04-26 22:48 43.99588 -3.13398 34199 ft 445 kts 348°
2026-04-26 22:49 44.05685 -3.14865 34194 ft 445 kts 356°
2026-04-26 22:49 44.11858 -3.14462 34208 ft 444 kts
2026-04-26 22:50 44.17982 -3.13741 34214 ft 444 kts
2026-04-26 22:50 44.24125 -3.13052 34198 ft 443 kts
2026-04-26 22:51 44.30275 -3.12401 34203 ft 442 kts
2026-04-26 22:51 44.36413 -3.11765 34204 ft 442 kts
2026-04-26 22:52 44.42537 -3.11131 34199 ft 441 kts
2026-04-26 22:52 44.48632 -3.10497 34199 ft 440 kts
2026-04-26 22:53 44.54745 -3.09859 34204 ft 440 kts
2026-04-26 22:53 44.60839 -3.09222 34202 ft 439 kts
2026-04-26 22:54 44.66938 -3.08583 34204 ft 439 kts
2026-04-26 22:54 44.72991 -3.07947 34202 ft 438 kts
2026-04-26 22:55 44.79078 -3.07307 34209 ft 438 kts
2026-04-26 22:55 44.85162 -3.06665 34205 ft 437 kts
2026-04-26 22:56 44.91232 -3.06024 34208 ft 437 kts
2026-04-26 22:56 44.97266 -3.05384 34203 ft 437 kts
2026-04-26 22:57 45.03332 -3.04741 34208 ft 437 kts
2026-04-26 22:57 45.09285 -3.04107 34202 ft 437 kts
2026-04-26 22:58 45.15346 -3.03461 34208 ft 436 kts
2026-04-26 22:58 45.21404 -3.02814 34205 ft 436 kts
2026-04-26 22:59 45.27420 -3.02170 34205 ft 436 kts
2026-04-26 22:59 45.33382 -3.00736 34207 ft 437 kts 17°
2026-04-26 23:00 45.39002 -2.97369 34202 ft 437 kts 22°
2026-04-26 23:00 45.44550 -2.93816 34207 ft 437 kts 22°
2026-04-26 23:01 45.50077 -2.90312 34206 ft 437 kts 22°
2026-04-26 23:01 45.55642 -2.86815 34204 ft 436 kts 22°
2026-04-26 23:02 45.61214 -2.83316 34203 ft 436 kts 22°
2026-04-26 23:02 45.66762 -2.79827 34205 ft 436 kts 22°
2026-04-26 23:03 45.72272 -2.76353 34208 ft 435 kts 22°
2026-04-26 23:03 45.77812 -2.72851 34204 ft 435 kts 22°
2026-04-26 23:04 45.83350 -2.69343 34208 ft 435 kts 22°
2026-04-26 23:04 45.88882 -2.65831 34208 ft 435 kts 22°
2026-04-26 23:05 45.94425 -2.62304 34202 ft 435 kts 22°
2026-04-26 23:05 45.99926 -2.58796 34203 ft 436 kts 22°
2026-04-26 23:06 46.05466 -2.55255 34203 ft 436 kts 22°
2026-04-26 23:06 46.11016 -2.51701 34204 ft 436 kts 22°
2026-04-26 23:07 46.16593 -2.48260 34193 ft 435 kts 16°
2026-04-26 23:07 46.22498 -2.46631 34219 ft 431 kts
2026-04-26 23:08 46.28474 -2.45770 34200 ft 432 kts
2026-04-26 23:08 46.34468 -2.44853 34202 ft 433 kts
2026-04-26 23:09 46.40458 -2.43885 34199 ft 433 kts
2026-04-26 23:09 46.46414 -2.42901 34198 ft 434 kts
2026-04-26 23:10 46.52230 -2.40346 34197 ft 440 kts 24°
2026-04-26 23:10 46.57589 -2.35972 34197 ft 442 kts 27°
2026-04-26 23:11 46.62914 -2.31458 34203 ft 443 kts 27°
2026-04-26 23:11 46.68267 -2.26979 34206 ft 444 kts 27°
2026-04-26 23:12 46.73598 -2.22550 34203 ft 444 kts 27°
2026-04-26 23:12 46.78975 -2.18077 34208 ft 445 kts 27°
2026-04-26 23:13 46.84354 -2.13590 34205 ft 445 kts 27°
2026-04-26 23:13 46.89758 -2.09086 34206 ft 445 kts 25°
2026-04-26 23:14 46.95282 -2.05147 34209 ft 444 kts 22°
2026-04-26 23:14 47.00934 -2.01518 34198 ft 442 kts 15°
2026-04-26 23:15 47.06916 -1.99711 34208 ft 439 kts
2026-04-26 23:15 47.12946 -1.98327 34207 ft 439 kts
2026-04-26 23:16 47.18988 -1.96872 34209 ft 440 kts
2026-04-26 23:16 47.25030 -1.95368 34214 ft 441 kts
2026-04-26 23:17 47.31090 -1.93853 34207 ft 441 kts
2026-04-26 23:17 47.37171 -1.92985 34206 ft 438 kts 354°
2026-04-26 23:18 47.43252 -1.93683 34209 ft 438 kts 353°
2026-04-26 23:18 47.49339 -1.94416 34212 ft 439 kts 353°
2026-04-26 23:19 47.55399 -1.95069 34207 ft 440 kts 353°
2026-04-26 23:19 47.61511 -1.95668 34200 ft 442 kts 357°
2026-04-26 23:20 47.67641 -1.94429 34203 ft 449 kts 14°
2026-04-26 23:20 47.73562 -1.91401 34202 ft 451 kts 17°
2026-04-26 23:21 47.79503 -1.88264 34203 ft 452 kts 16°
2026-04-26 23:21 47.85453 -1.85194 34212 ft 453 kts 16°
2026-04-26 23:22 47.91380 -1.82167 34208 ft 453 kts 16°
2026-04-26 23:22 47.97394 -1.79088 34212 ft 454 kts 16°
2026-04-26 23:23 48.03328 -1.76041 34216 ft 454 kts 16°
2026-04-26 23:23 48.09456 -1.74086 34212 ft 448 kts 359°
2026-04-26 23:24 48.15681 -1.74144 34212 ft 447 kts 356°
2026-04-26 23:24 48.21897 -1.74324 34211 ft 447 kts 356°
2026-04-26 23:25 48.28132 -1.74446 34207 ft 448 kts 356°
2026-04-26 23:25 48.34378 -1.74528 34212 ft 448 kts 356°
2026-04-26 23:26 48.40577 -1.74599 34220 ft 449 kts 356°
2026-04-26 23:26 48.46844 -1.74671 34228 ft 450 kts 356°
2026-04-26 23:27 48.53117 -1.74745 34229 ft 451 kts 356°
2026-04-26 23:27 48.59396 -1.74820 34232 ft 452 kts 356°
2026-04-26 23:28 48.65676 -1.74895 34229 ft 452 kts 356°
2026-04-26 23:28 48.71984 -1.74971 34232 ft 453 kts 356°
2026-04-26 23:29 48.78306 -1.75047 34231 ft 454 kts 356°
2026-04-26 23:29 48.84587 -1.75123 34231 ft 455 kts 356°
2026-04-26 23:30 48.90934 -1.75199 34219 ft 456 kts 356°
2026-04-26 23:30 48.97289 -1.75063 34236 ft 458 kts 358°
2026-04-26 23:31 49.03662 -1.74769 34223 ft 459 kts 358°
2026-04-26 23:31 49.10062 -1.74492 34231 ft 464 kts 358°
2026-04-26 23:32 49.16575 -1.74242 34258 ft 473 kts 358°
2026-04-26 23:32 49.23222 -1.73994 34254 ft 482 kts 358°
2026-04-26 23:33 49.29971 -1.73738 34245 ft 485 kts 358°
2026-04-26 23:33 49.36727 -1.73479 34255 ft 486 kts 358°
2026-04-26 23:34 49.43451 -1.73222 34259 ft 485 kts 358°
2026-04-26 23:34 49.50149 -1.72964 34256 ft 480 kts 358°
2026-04-26 23:35 49.56834 -1.72702 34265 ft 479 kts 359°
2026-04-26 23:35 49.63421 -1.70802 34262 ft 486 kts 17°
2026-04-26 23:36 49.69767 -1.67208 34265 ft 486 kts 18°
2026-04-26 23:36 49.72901 -1.65388 33989 ft 491 kts 18°
2026-04-26 23:36 49.76149 -1.63529 33337 ft 492 kts 18°
2026-04-26 23:36 49.78291 -1.62318 32905 ft 491 kts 18°
2026-04-26 23:37 49.81498 -1.60523 32225 ft 490 kts 18°
2026-04-26 23:37 49.84695 -1.58745 31512 ft 490 kts 18°
2026-04-26 23:37 49.88955 -1.56377 30556 ft 491 kts 18°
2026-04-26 23:37 49.92182 -1.54579 29738 ft 491 kts 18°
2026-04-26 23:38 49.95374 -1.52794 29213 ft 485 kts 18°
2026-04-26 23:38 49.97472 -1.51619 28818 ft 482 kts 18°
2026-04-26 23:38 50.00606 -1.49864 28299 ft 476 kts 17°
2026-04-26 23:38 50.03709 -1.48255 27911 ft 467 kts 15°
2026-04-26 23:39 50.06804 -1.46763 27372 ft 462 kts 15°
2026-04-26 23:39 50.09868 -1.45317 26844 ft 458 kts 15°
2026-04-26 23:39 50.12914 -1.43868 26316 ft 455 kts 15°
2026-04-26 23:39 50.15927 -1.42412 25793 ft 452 kts 15°
2026-04-26 23:40 50.18918 -1.40948 25273 ft 448 kts 15°
2026-04-26 23:40 50.21882 -1.39489 24757 ft 446 kts 15°
2026-04-26 23:40 50.24835 -1.38033 24230 ft 443 kts 15°
2026-04-26 23:40 50.27769 -1.36590 23705 ft 440 kts 15°
2026-04-26 23:41 50.30675 -1.35165 23122 ft 437 kts 15°
2026-04-26 23:41 50.33534 -1.33764 22581 ft 433 kts 15°
2026-04-26 23:41 50.36403 -1.32355 22068 ft 429 kts 15°
2026-04-26 23:41 50.39241 -1.30959 21547 ft 425 kts 15°
2026-04-26 23:42 50.42049 -1.29576 21037 ft 421 kts 15°
2026-04-26 23:42 50.47600 -1.26837 20032 ft 414 kts 16°
2026-04-26 23:42 50.50300 -1.25297 19511 ft 413 kts 26°
2026-04-26 23:43 50.52621 -1.22704 19105 ft 409 kts 39°
2026-04-26 23:43 50.54764 -1.19797 18615 ft 406 kts 40°
2026-04-26 23:43 50.56893 -1.16892 18044 ft 404 kts 40°
2026-04-26 23:43 50.59023 -1.14015 17512 ft 401 kts 39°
2026-04-26 23:44 50.61116 -1.11224 17007 ft 398 kts 39°
2026-04-26 23:44 50.63225 -1.08429 16510 ft 394 kts 39°
2026-04-26 23:44 50.65313 -1.05663 16020 ft 391 kts 39°
2026-04-26 23:44 50.67267 -1.02679 15526 ft 389 kts 48°
2026-04-26 23:45 50.68995 -0.99401 15043 ft 387 kts 51°
2026-04-26 23:45 50.70639 -0.96062 14583 ft 384 kts 52°
2026-04-26 23:45 50.72277 -0.92734 14158 ft 381 kts 52°
2026-04-26 23:45 50.73892 -0.89517 13989 ft 370 kts 51°
2026-04-26 23:46 50.75489 -0.86390 13811 ft 360 kts 50°
2026-04-26 23:46 50.77043 -0.83375 13648 ft 350 kts 50°
2026-04-26 23:46 50.78544 -0.80469 13554 ft 339 kts 50°
2026-04-26 23:46 50.80027 -0.77595 13469 ft 328 kts 51°
2026-04-26 23:47 50.81182 -0.74604 13291 ft 321 kts 71°
2026-04-26 23:47 50.81699 -0.71203 13045 ft 316 kts 79°
2026-04-26 23:47 50.82090 -0.67808 12802 ft 312 kts 81°
2026-04-26 23:47 50.82459 -0.64446 12573 ft 308 kts 81°
2026-04-26 23:48 50.82823 -0.61140 12364 ft 305 kts 80°
2026-04-26 23:48 50.83191 -0.57845 12154 ft 303 kts 80°
2026-04-26 23:48 50.83560 -0.54570 11949 ft 301 kts 80°
2026-04-26 23:48 50.83932 -0.51296 11636 ft 304 kts 80°
2026-04-26 23:49 50.84312 -0.47971 11270 ft 306 kts 79°
2026-04-26 23:49 50.84688 -0.44684 11021 ft 302 kts 79°
2026-04-26 23:49 50.85061 -0.41420 10805 ft 299 kts 79°
2026-04-26 23:49 50.85423 -0.38242 10609 ft 295 kts 79°
2026-04-26 23:50 50.85784 -0.35070 10399 ft 292 kts 79°
2026-04-26 23:50 50.86143 -0.31919 10207 ft 289 kts 79°
2026-04-26 23:50 50.86495 -0.28810 9988 ft 285 kts 79°
2026-04-26 23:50 50.86843 -0.25737 9773 ft 282 kts 79°
2026-04-26 23:51 50.87186 -0.22695 9579 ft 277 kts 79°
2026-04-26 23:51 50.87524 -0.19708 9389 ft 275 kts 79°
2026-04-26 23:51 50.87858 -0.16733 9204 ft 271 kts 79°
2026-04-26 23:51 50.88186 -0.13810 9018 ft 267 kts 79°
2026-04-26 23:52 50.88508 -0.10928 8840 ft 264 kts 79°
2026-04-26 23:52 50.88908 -0.08125 8644 ft 259 kts 66°
2026-04-26 23:52 50.89882 -0.05850 8482 ft 252 kts 41°
2026-04-26 23:52 50.91355 -0.04431 8314 ft 245 kts 17°
2026-04-26 23:53 50.92994 -0.04076 8192 ft 233 kts 354°
2026-04-26 23:53 50.94517 -0.04711 8031 ft 222 kts 333°
2026-04-26 23:53 50.95730 -0.06110 7858 ft 212 kts 315°
2026-04-26 23:53 50.96622 -0.07945 7704 ft 209 kts 298°
2026-04-26 23:54 50.97119 -0.10099 7570 ft 207 kts 285°
2026-04-26 23:54 50.97445 -0.12320 7425 ft 206 kts 282°
2026-04-26 23:54 50.97709 -0.14556 7274 ft 205 kts 281°
2026-04-26 23:54 50.97963 -0.16780 7137 ft 205 kts 281°
2026-04-26 23:55 50.98218 -0.19032 7043 ft 207 kts 281°
2026-04-26 23:55 50.98471 -0.21281 7001 ft 207 kts 281°
2026-04-26 23:55 50.98722 -0.23517 6988 ft 205 kts 281°
2026-04-26 23:55 50.98972 -0.25746 6988 ft 205 kts 281°
2026-04-26 23:56 50.99222 -0.27971 7002 ft 206 kts 281°
2026-04-26 23:56 50.99470 -0.30181 6993 ft 206 kts 281°
2026-04-26 23:56 50.99721 -0.32423 6990 ft 206 kts 281°
2026-04-26 23:56 50.99972 -0.34664 6990 ft 206 kts 281°
2026-04-26 23:57 51.00223 -0.36905 6989 ft 206 kts 281°
2026-04-26 23:57 51.00474 -0.39150 6987 ft 206 kts 281°
2026-04-26 23:57 51.00723 -0.41387 6989 ft 206 kts 281°
2026-04-26 23:57 51.00971 -0.43611 6995 ft 200 kts 281°
2026-04-26 23:58 51.01237 -0.45729 6967 ft 191 kts 292°
2026-04-26 23:58 51.02115 -0.47192 6999 ft 187 kts 341°
2026-04-26 23:58 51.03364 -0.47188 7010 ft 182 kts 12°
2026-04-26 23:58 51.04607 -0.46820 6990 ft 179 kts
2026-04-26 23:59 51.05834 -0.46541 6985 ft 178 kts
2026-04-26 23:59 51.07073 -0.46283 6766 ft 187 kts
2026-04-26 23:59 51.08381 -0.46024 6346 ft 192 kts
2026-04-26 23:59 51.09730 -0.45763 5846 ft 200 kts
2026-04-27 00:00 51.11045 -0.45020 5309 ft 206 kts 42°
2026-04-27 00:00 51.11699 -0.43039 4840 ft 207 kts 78°
2026-04-27 00:00 51.11955 -0.40790 4362 ft 202 kts 79°
2026-04-27 00:00 51.12199 -0.38653 3839 ft 190 kts 79°
2026-04-27 00:01 51.12441 -0.36648 3339 ft 179 kts 78°
2026-04-27 00:01 51.12669 -0.34795 2990 ft 160 kts 78°
2026-04-27 00:01 51.12886 -0.33144 2650 ft 146 kts 77°
2026-04-27 00:01 51.13094 -0.31604 2344 ft 142 kts 77°
2026-04-27 00:02 51.13301 -0.30073 2003 ft 140 kts 78°
2026-04-27 00:02 51.13494 -0.28536 1531 ft 141 kts 78°
2026-04-27 00:02 51.13694 -0.27025 1098 ft 138 kts 77°
2026-04-27 00:02 51.13889 -0.25537 803 ft 136 kts 78°
2026-04-27 00:03 51.14090 -0.24057 670 ft 138 kts 77°
2026-04-27 00:03 51.14310 -0.22556 478 ft 140 kts 76°
2026-04-27 00:03 51.14529 -0.21069 301 ft 130 kts 77°
2026-04-27 00:03 51.14709 -0.19777 206 ft 102 kts 77°
2026-04-27 00:04 51.14806 -0.19077 209 ft 36 kts 77°
2026-04-27 00:04 51.14863 -0.18710 208 ft 29 kts 69°
2026-04-27 00:04 51.14956 -0.18482 208 ft 5 kts 51°
2026-04-27 00:04 51.14978 -0.18439 204 ft 5 kts 51°
2026-04-27 00:05 51.15005 -0.18385 214 ft 9 kts 51°
2026-04-27 00:05 51.15056 -0.18282 209 ft 15 kts 52°
2026-04-27 00:05 51.15147 -0.18202 211 ft 15 kts
2026-04-27 00:05 51.15212 -0.18085 205 ft 15 kts 74°
2026-04-27 00:06 51.15224 -0.17990 205 ft 0 kts 79°
2026-04-27 00:06 51.15225 -0.17989 205 ft 0 kts 73°
2026-04-27 00:06 51.15242 -0.17975 216 ft 4 kts
2026-04-27 00:06 51.15278 -0.17986 205 ft 6 kts 359°
2026-04-27 00:07 51.15298 -0.17991 205 ft 0 kts 352°